FW5426 Weather Reports


Display with metric or nautical units.
time (UTC)temp
F
wind
direction
speed
MPH
gust
MPH
rain 1hr
in
rain 24hr
in
rain mn
in
humidity
%
barometer
mb
20260905215803 95 330 5.0 11.0 0.00 0.00 0.00 29 1016.0
20260905215522 95 259 3.0 9.0 0.00 0.00 0.00 29 1016.0
20260905214804 94 279 2.0 9.0 0.00 0.00 0.00 30 1016.0
20260905214515 94 161 3.0 11.0 0.00 0.00 0.00 30 1016.1
20260905213752 94 5 5.0 11.0 0.00 0.00 0.00 30 1016.3
20260905213244 95 33 4.0 11.0 0.00 0.00 0.00 29 1016.3
20260905212738 94 335 4.0 9.0 0.00 0.00 0.00 30 1016.3
20260905212232 94 316 4.0 9.0 0.00 0.00 0.00 30 1016.3
20260905211730 94 334 6.0 10.0 0.00 0.00 0.00 30 1016.4
20260905211230 94 220 7.0 13.0 0.00 0.00 0.00 30 1016.5
20260905210731 94 205 7.0 13.0 0.00 0.00 0.00 29 1016.7
20260905210233 95 279 6.0 14.0 0.00 0.00 0.00 29 1016.8
20260905205730 95 266 8.0 14.0 0.00 0.00 0.00 30 1016.8
20260905205230 94 254 7.0 13.0 0.00 0.00 0.00 30 1017.0
20260905204729 94 216 6.0 12.0 0.00 0.00 0.00 31 1017.1
20260905204452 94 275 6.0 12.0 0.00 0.00 0.00 32 1017.0
20260905203729 93 197 4.0 11.0 0.00 0.00 0.00 32 1017.2
20260905203231 92 259 3.0 7.0 0.00 0.00 0.00 33 1017.2
20260905202731 91 63 3.0 6.0 0.00 0.00 0.00 34 1017.2
20260905202456 92 9 3.0 7.0 0.00 0.00 0.00 34 1017.3
20260905201730 92 295 3.0 7.0 0.00 0.00 0.00 34 1017.6
20260905201231 91 167 3.0 6.0 0.00 0.00 0.00 35 1017.6
20260905200729 91 205 3.0 7.0 0.00 0.00 0.00 35 1017.6
20260905200453 91 209 4.0 10.0 0.00 0.00 0.00 35 1017.9
20260905195730 92 285 4.0 10.0 0.00 0.00 0.00 34 1017.9
20260905195226 92 351 4.0 9.0 0.00 0.00 0.00 34 1018.0
20260905194720 92 330 3.0 8.0 0.00 0.00 0.00 35 1018.1
20260905194220 91 24 4.0 8.0 0.00 0.00 0.00 35 1018.2
20260905193940 91 46 5.0 10.0 0.00 0.00 0.00 35 1018.2
20260905193220 91 19 5.0 10.0 0.00 0.00 0.00 36 1018.3
20260905192718 92 286 3.0 9.0 0.00 0.00 0.00 35 1018.4
20260905192219 92 286 3.0 7.0 0.00 0.00 0.00 33 1018.7
20260905191718 92 227 2.0 7.0 0.00 0.00 0.00 34 1018.6
20260905191437 92 203 3.0 11.0 0.00 0.00 0.00 34 1018.6
20260905190938 92 307 4.0 11.0 0.00 0.00 0.00 34 1018.7
20260905190439 91 162 3.0 10.0 0.00 0.00 0.00 35 1018.8
20260905185941 91 188 2.0 10.0 0.00 0.00 0.00 35 1018.9
20260905185216 90 211 2.0 8.0 0.00 0.00 0.00 36 1019.0
20260905184716 90 197 3.0 8.0 0.00 0.00 0.00 36 1019.1
20260905184216 90 222 3.0 8.0 0.00 0.00 0.00 36 1019.2
20260905183717 90 146 5.0 10.0 0.00 0.00 0.00 36 1019.5
20260905183216 90 188 5.0 11.0 0.00 0.00 0.00 36 1019.5
20260905183156 89 171 4.0 11.0 0.00 0.00 0.00 38 1019.6
20260905182216 89 213 4.0 9.0 0.00 0.00 0.00 37 1019.6
20260905181936 89 153 4.0 10.0 0.00 0.00 0.00 37 1019.7
20260905181210 89 95 4.0 10.0 0.00 0.00 0.00 37 1019.8
20260905180924 89 76 5.0 12.0 0.00 0.00 0.00 38 1019.8
20260905180206 89 42 4.0 12.0 0.00 0.00 0.00 38 1019.8
20260905175706 89 152 3.0 8.0 0.00 0.00 0.00 38 1019.9
20260905175206 89 238 4.0 12.0 0.00 0.00 0.00 39 1019.9
20260905174704 89 215 4.0 12.0 0.00 0.00 0.00 38 1019.9
20260905174204 89 148 4.0 10.0 0.00 0.00 0.00 38 1020.0
20260905173704 89 160 3.0 7.0 0.00 0.00 0.00 38 1020.0
20260905173202 89 30 3.0 8.0 0.00 0.00 0.00 39 1020.1
20260905172702 88 95 2.0 8.0 0.00 0.00 0.00 39 1020.2
20260905172202 88 99 2.0 4.0 0.00 0.00 0.00 39 1020.1
20260905171702 87 54 3.0 8.0 0.00 0.00 0.00 40 1020.4
20260905171203 87 342 3.0 8.0 0.00 0.00 0.00 41 1020.4
20260905170702 87 76 3.0 8.0 0.00 0.00 0.00 41 1020.2
20260905170202 87 230 3.0 7.0 0.00 0.00 0.00 41 1020.2
20260905165702 87 105 3.0 7.0 0.00 0.00 0.00 42 1020.4
20260905165202 87 12 2.0 7.0 0.00 0.00 0.00 41 1020.1
20260905164702 87 37 4.0 9.0 0.00 0.00 0.00 42 1020.2
20260905164201 86 117 5.0 9.0 0.00 0.00 0.00 42 1020.4
20260905163702 86 148 4.0 9.0 0.00 0.00 0.00 42 1020.2
20260905163202 85 103 3.0 7.0 0.00 0.00 0.00 43 1020.4
20260905162702 85 10 4.0 8.0 0.00 0.00 0.00 44 1020.2
20260905162422 85 82 4.0 9.0 0.00 0.00 0.00 43 1020.4
20260905161703 85 76 3.0 9.0 0.00 0.00 0.00 43 1020.4
20260905161202 85 137 2.0 6.0 0.00 0.00 0.00 44 1020.2
20260905160702 85 120 2.0 7.0 0.00 0.00 0.00 44 1020.2
20260905160644 84 132 3.0 7.0 0.00 0.00 0.00 45 1020.2
20260905155702 84 97 2.0 6.0 0.00 0.00 0.00 45 1020.1
20260905155202 84 220 2.0 6.0 0.00 0.00 0.00 45 1020.2
20260905154701 84 73 2.0 6.0 0.00 0.00 0.00 46 1020.2
20260905154201 84 80 2.0 6.0 0.00 0.00 0.00 45 1020.4
20260905153703 84 57 3.0 7.0 0.00 0.00 0.00 46 1020.2
20260905153419 84 77 3.0 7.0 0.00 0.00 0.00 46 1020.2
20260905152701 84 146 2.0 7.0 0.00 0.00 0.00 46 1020.2
20260905152201 84 181 3.0 8.0 0.00 0.00 0.00 46 1020.4
20260905151701 84 128 3.0 8.0 0.00 0.00 0.00 45 1020.2
20260905151201 84 146 2.0 8.0 0.00 0.00 0.00 45 1020.4
20260905150702 84 128 1.0 4.0 0.00 0.00 0.00 45 1020.2
20260905150202 84 113 1.0 4.0 0.00 0.00 0.00 46 1020.2
20260905145701 83 133 0.0 2.0 0.00 0.00 0.00 47 1020.1
20260905145645 82 16 0.0 2.0 0.00 0.00 0.00 48 1020.1
20260905144926 82 17 1.0 3.0 0.00 0.00 0.00 49 1020.1
20260905144202 81 347 1.0 3.0 0.00 0.00 0.00 50 1020.1
20260905143701 81 350 1.0 3.0 0.00 0.00 0.00 50 1020.0
20260905143201 80 88 3.0 6.0 0.00 0.00 0.00 51 1020.1
20260905142658 80 113 3.0 6.0 0.00 0.00 0.00 52 1020.1
20260905142153 79 95 3.0 5.0 0.00 0.00 0.00 53 1020.0
20260905141648 79 51 3.0 6.0 0.00 0.00 0.00 54 1020.0
20260905141143 78 14 3.0 6.0 0.00 0.00 0.00 55 1020.0
20260905140644 78 40 2.0 4.0 0.00 0.00 0.00 56 1019.9
20260905140139 77 56 1.0 3.0 0.00 0.00 0.00 58 1019.9
20260905135639 76 57 1.0 3.0 0.00 0.00 0.00 59 1019.9
20260905135148 75 57 0.0 3.0 0.00 0.00 0.00 60 1019.8
20260905134643 75 96 0.0 1.0 0.00 0.00 0.00 62 1019.9
20260905134213 74 34 1.0 4.0 0.00 0.00 0.00 63 1019.7
20260905134139 74 34 0.0 0.0 0.00 0.00 0.00 62 1019.8
20260905133146 74 23 1.0 4.0 0.00 0.00 0.00 63 1019.6
20260905132735 74 118 3.0 8.0 0.00 0.00 0.00 63 1019.5
20260905132718 74 141 5.0 9.0 0.00 0.00 0.00 63 1019.3
20260905132645 74 42 1.0 6.0 0.00 0.00 0.00 63 1019.5
20260905131137 74 134 6.0 10.0 0.00 0.00 0.00 63 1019.2
20260905130911 75 123 6.0 10.0 0.00 0.00 0.00 62 1019.2
20260905130133 75 116 5.0 9.0 0.00 0.00 0.00 61 1019.1
20260905125645 76 95 4.0 7.0 0.00 0.00 0.00 60 1019.0
20260905125134 76 113 4.0 8.0 0.00 0.00 0.00 59 1018.9
20260905124909 76 144 4.0 8.0 0.00 0.00 0.00 58 1018.9
20260905124139 76 124 4.0 8.0 0.00 0.00 0.00 57 1018.9
20260905123640 76 115 4.0 7.0 0.00 0.00 0.00 58 1018.8
20260905123131 76 112 2.0 7.0 0.00 0.00 0.00 58 1018.6
20260905122630 76 124 1.0 3.0 0.00 0.00 0.00 58 1018.6
20260905122130 76 137 0.0 2.0 0.00 0.00 0.00 58 1018.4
20260905121644 76 215 0.0 3.0 0.00 0.00 0.00 57 1018.6
20260905121141 76 215 0.0 3.0 0.00 0.00 0.00 57 1018.4
20260905120636 77 25 1.0 3.0 0.00 0.00 0.00 56 1018.4
20260905120130 77 25 1.0 4.0 0.00 0.00 0.00 56 1018.2
20260905115643 77 25 1.0 4.0 0.00 0.00 0.00 55 1018.3
20260905115143 78 234 1.0 3.0 0.00 0.00 0.00 54 1018.4
20260905114630 78 234 2.0 7.0 0.00 0.00 0.00 54 1018.3
20260905114141 78 223 3.0 7.0 0.00 0.00 0.00 55 1018.3
20260905113632 77 151 2.0 6.0 0.00 0.00 0.00 55 1018.4
20260905113131 77 290 3.0 7.0 0.00 0.00 0.00 56 1018.4
20260905112640 77 227 6.0 13.0 0.00 0.00 0.00 56 1018.3
20260905112144 77 196 6.0 13.0 0.00 0.00 0.00 57 1018.4
20260905111634 77 251 7.0 14.0 0.00 0.00 0.00 55 1018.2
20260905111124 77 250 8.0 14.0 0.00 0.00 0.00 56 1018.3
20260905110631 77 216 7.0 14.0 0.00 0.00 0.00 57 1018.3
20260905110125 78 196 5.0 11.0 0.00 0.00 0.00 56 1018.2
20260905105914 78 224 2.0 8.0 0.00 0.00 0.00 55 1018.1
20260905105416 78 172 1.0 5.0 0.00 0.00 0.00 54 1018.3
20260905104626 78 277 1.0 5.0 0.00 0.00 0.00 53 1018.3
20260905104118 78 316 4.0 11.0 0.00 0.00 0.00 53 1018.3
20260905103614 78 269 7.0 15.0 0.00 0.00 0.00 54 1018.3
20260905103112 78 228 6.0 15.0 0.00 0.00 0.00 54 1018.2
20260905102625 78 254 6.0 13.0 0.00 0.00 0.00 54 1018.1
20260905102116 78 246 7.0 13.0 0.00 0.00 0.00 56 1018.0
20260905101612 78 246 6.0 12.0 0.00 0.00 0.00 55 1018.2
20260905101112 78 256 4.0 10.0 0.00 0.00 0.00 54 1018.0
20260905100622 78 229 3.0 6.0 0.00 0.00 0.00 53 1018.0
20260905100122 78 199 2.0 7.0 0.00 0.00 0.00 52 1018.0
20260905095620 78 137 3.0 7.0 0.00 0.00 0.00 52 1018.0
20260905095352 78 116 3.0 6.0 0.00 0.00 0.00 52 1018.0
20260905094608 78 116 4.0 8.0 0.00 0.00 0.00 51 1017.9
20260905094118 78 93 7.0 11.0 0.00 0.00 0.00 51 1017.8
20260905093845 79 119 6.0 11.0 0.00 0.00 0.00 51 1017.7
20260905093119 78 98 5.0 10.0 0.00 0.00 0.00 51 1017.6
20260905092617 78 98 4.0 7.0 0.00 0.00 0.00 51 1017.4
20260905092115 78 55 3.0 8.0 0.00 0.00 0.00 51 1017.3
20260905091607 78 89 4.0 8.0 0.00 0.00 0.00 51 1017.3
20260905091111 79 94 2.0 4.0 0.00 0.00 0.00 50 1017.4
20260905090607 78 83 2.0 6.0 0.00 0.00 0.00 51 1017.6
20260905090111 79 78 3.0 6.0 0.00 0.00 0.00 50 1017.7
20260905085834 79 95 4.0 8.0 0.00 0.00 0.00 50 1017.7
20260905085104 80 105 5.0 8.0 0.00 0.00 0.00 49 1017.7
20260905084609 80 119 5.0 8.0 0.00 0.00 0.00 49 1017.6
20260905084339 80 131 4.0 8.0 0.00 0.00 0.00 49 1017.4
20260905083606 80 111 2.0 7.0 0.00 0.00 0.00 48 1017.6
20260905083101 81 110 2.0 5.0 0.00 0.00 0.00 47 1017.4
20260905082614 81 65 3.0 8.0 0.00 0.00 0.00 47 1017.4
20260905082108 81 76 2.0 8.0 0.00 0.00 0.00 47 1017.4
20260905081601 81 68 2.0 4.0 0.00 0.00 0.00 47 1017.6
20260905081404 81 111 1.0 4.0 0.00 0.00 0.00 47 1017.3
20260905080610 81 81 1.0 3.0 0.00 0.00 0.00 46 1017.3
20260905075555 82 118 1.0 4.0 0.00 0.00 0.00 45 1017.6
20260905075050 82 139 1.0 4.0 0.00 0.00 0.00 44 1017.7
20260905074547 82 273 2.0 5.0 0.00 0.00 0.00 44 1017.7
20260905074037 83 174 1.0 5.0 0.00 0.00 0.00 44 1017.6
20260905073550 83 76 0.0 3.0 0.00 0.00 0.00 44 1017.6
20260905073041 83 48 1.0 3.0 0.00 0.00 0.00 44 1017.7
20260905072531 83 292 1.0 4.0 0.00 0.00 0.00 44 1017.9
20260905072035 83 52 1.0 4.0 0.00 0.00 0.00 43 1017.9
20260905071532 83 322 2.0 7.0 0.00 0.00 0.00 43 1017.9
20260905071044 83 338 3.0 8.0 0.00 0.00 0.00 43 1017.9
20260905070813 83 334 4.0 10.0 0.00 0.00 0.00 44 1018.0
20260905070257 83 17 3.0 10.0 0.00 0.00 0.00 44 1018.0
20260905065810 83 336 3.0 10.0 0.00 0.00 0.00 44 1017.9
20260905065035 83 350 4.0 10.0 0.00 0.00 0.00 44 1017.9
20260905064531 83 5 4.0 9.0 0.00 0.00 0.00 44 1017.8
20260905064042 83 341 4.0 9.0 0.00 0.00 0.00 44 1017.9
20260905063757 83 25 3.0 9.0 0.00 0.00 0.00 44 1017.8
20260905063031 83 300 2.0 8.0 0.00 0.00 0.00 44 1017.8
20260905062532 83 317 2.0 8.0 0.00 0.00 0.00 44 1017.7
20260905062031 83 308 1.0 8.0 0.00 0.00 0.00 44 1017.8
20260905061543 83 326 1.0 3.0 0.00 0.00 0.00 44 1017.7
20260905061316 83 49 0.0 3.0 0.00 0.00 0.00 44 1017.8
20260905060531 83 323 0.0 0.0 0.00 0.00 0.00 44 1017.7
20260905060042 83 323 0.0 3.0 0.00 0.00 0.00 44 1017.7
20260905055530 83 323 1.0 3.0 0.00 0.00 0.00 44 1017.7
20260905055323 83 0 1.0 4.0 0.00 0.00 0.00 44 1017.8
20260905054613 83 61 0.0 0.0 0.00 0.00 0.00 45 1017.8
20260905054540 83 325 1.0 4.0 0.00 0.00 0.00 45 1017.8
20260905053535 83 61 0.0 0.0 0.00 0.00 0.00 45 1017.8
20260905053029 83 63 0.0 0.0 0.00 0.00 0.00 45 1017.7
20260905052550 83 355 0.0 0.0 0.00 0.00 0.00 44 1017.7
20260905052531 83 355 0.0 0.0 0.00 0.00 0.00 44 1017.7
20260905051529 84 355 0.0 0.0 0.00 0.00 0.00 44 1017.7
20260905051033 84 355 0.0 1.0 0.00 0.00 0.00 43 1017.7
20260905050755 84 355 0.0 1.0 0.00 0.00 0.00 43 1017.7
20260905050317 85 339 0.0 1.0 0.00 0.00 0.00 42 1017.6
20260905045532 85 339 0.0 1.0 0.00 0.00 0.00 42 1017.7
20260905045030 85 339 0.0 3.0 0.00 0.00 0.00 42 1017.7
20260905044537 85 339 0.0 3.0 0.00 0.00 0.00 42 1017.7
20260905044255 85 46 1.0 3.0 0.00 0.00 0.00 41 1017.8
20260905043529 85 46 1.0 3.0 0.00 0.00 0.00 41 1017.8
20260905043029 85 47 0.0 3.0 0.00 0.00 0.00 41 1017.9
20260905042541 86 69 0.0 0.0 0.00 0.00 0.00 40 1017.9
20260905042042 86 169 0.0 1.0 0.00 0.00 0.00 40 1017.8
20260905041814 86 172 0.0 1.0 0.00 0.00 0.00 40 1017.8
20260905041308 86 284 1.0 4.0 0.00 0.00 0.00 39 1017.8
20260905040539 86 279 2.0 4.0 0.00 0.00 0.00 39 1017.8
20260905040259 86 248 2.0 4.0 0.00 0.00 0.00 39 1017.8
20260905035541 87 254 2.0 4.0 0.00 0.00 0.00 39 1017.8
20260905035036 87 236 2.0 4.0 0.00 0.00 0.00 39 1017.7
20260905034529 87 231 2.0 4.0 0.00 0.00 0.00 39 1017.7
20260905034041 87 240 2.0 4.0 0.00 0.00 0.00 39 1017.7
20260905033530 87 243 2.0 4.0 0.00 0.00 0.00 38 1017.6
20260905033028 87 237 2.0 4.0 0.00 0.00 0.00 38 1017.6
20260905032819 87 231 3.0 4.0 0.00 0.00 0.00 38 1017.3
20260905032036 87 205 3.0 4.0 0.00 0.00 0.00 38 1017.3
20260905031535 87 219 2.0 4.0 0.00 0.00 0.00 38 1017.3
20260905031025 87 244 3.0 5.0 0.00 0.00 0.00 38 1017.3
20260905030537 87 197 3.0 5.0 0.00 0.00 0.00 38 1017.4
20260905030035 87 221 3.0 5.0 0.00 0.00 0.00 38 1017.3
20260905025808 87 207 3.0 5.0 0.00 0.00 0.00 38 1017.2
20260905025309 87 238 2.0 5.0 0.00 0.00 0.00 38 1017.1
20260905024526 88 252 1.0 3.0 0.00 0.00 0.00 38 1017.1
20260905024305 88 200 1.0 3.0 0.00 0.00 0.00 38 1017.0
20260905023754 88 221 2.0 4.0 0.00 0.00 0.00 38 1017.0
20260905023025 88 236 2.0 4.0 0.00 0.00 0.00 38 1016.9
20260905022535 88 237 2.0 4.0 0.00 0.00 0.00 37 1016.9
20260905022030 88 213 1.0 4.0 0.00 0.00 0.00 38 1017.0
20260905021525 88 231 1.0 4.0 0.00 0.00 0.00 38 1016.9
20260905021308 88 309 1.0 4.0 0.00 0.00 0.00 38 1016.9
20260905021304 88 311 1.0 4.0 0.00 0.00 0.00 38 1016.9
20260905020032 88 267 1.0 3.0 0.00 0.00 0.00 38 1016.8
20260905015531 88 300 0.0 2.0 0.00 0.00 0.00 38 1016.9
20260905015017 88 311 0.0 2.0 0.00 0.00 0.00 38 1016.8
20260905014517 88 304 1.0 3.0 0.00 0.00 0.00 38 1016.8
20260905014306 88 290 1.0 3.0 0.00 0.00 0.00 38 1016.8
20260905013759 88 305 1.0 4.0 0.00 0.00 0.00 38 1016.8
20260905013027 88 318 2.0 6.0 0.00 0.00 0.00 37 1016.7
20260905012526 89 319 2.0 6.0 0.00 0.00 0.00 37 1016.5
20260905012015 89 304 3.0 10.0 0.00 0.00 0.00 37 1016.5
20260905011550 89 312 2.0 7.0 0.00 0.00 0.00 37 1016.7
20260905011518 89 53 3.0 10.0 0.00 0.00 0.00 37 1016.7
20260905010524 89 281 2.0 7.0 0.00 0.00 0.00 36 1016.5
20260905010017 90 290 2.0 6.0 0.00 0.00 0.00 36 1016.4
20260905005512 90 198 3.0 6.0 0.00 0.00 0.00 35 1016.5
20260905005016 91 232 2.0 6.0 0.00 0.00 0.00 35 1016.5
20260905004511 91 146 2.0 6.0 0.00 0.00 0.00 35 1016.4
20260905004012 91 238 1.0 4.0 0.00 0.00 0.00 35 1016.4
20260905003510 91 227 2.0 4.0 0.00 0.00 0.00 35 1016.5
20260905003014 91 304 2.0 5.0 0.00 0.00 0.00 35 1016.5
20260905002804 91 300 4.0 9.0 0.00 0.00 0.00 34 1016.5
20260905002019 91 296 4.0 9.0 0.00 0.00 0.00 34 1016.4
20260905001512 91 167 2.0 8.0 0.00 0.00 0.00 35 1016.4
20260905001010 91 280 1.0 8.0 0.00 0.00 0.00 35 1016.5
20260905000521 91 224 2.0 6.0 0.00 0.00 0.00 35 1016.5
20260905000013 91 224 4.0 9.0 0.00 0.00 0.00 35 1016.3
20260904235519 91 311 4.0 9.0 0.00 0.00 0.00 34 1016.3
20260904235013 91 236 3.0 8.0 0.00 0.00 0.00 35 1016.3
20260904234511 91 36 3.0 9.0 0.00 0.00 0.00 34 1016.2
20260904234020 91 5 4.0 11.0 0.00 0.00 0.00 33 1016.2
20260904233755 91 281 4.0 11.0 0.00 0.00 0.00 33 1016.3
20260904233010 91 309 5.0 9.0 0.00 0.00 0.00 34 1016.2
20260904232508 92 345 4.0 13.0 0.00 0.00 0.00 34 1016.2
20260904232237 92 308 3.0 13.0 0.00 0.00 0.00 34 1016.2
20260904231514 91 155 3.0 9.0 0.00 0.00 0.00 34 1016.2
20260904231231 91 320 3.0 9.0 0.00 0.00 0.00 34 1016.2
20260904230506 92 337 2.0 6.0 0.00 0.00 0.00 33 1016.3
20260904230225 92 263 4.0 11.0 0.00 0.00 0.00 33 1016.4
20260904225504 91 330 5.0 13.0 0.00 0.00 0.00 34 1016.4
20260904225005 91 232 5.0 13.0 0.00 0.00 0.00 34 1016.4
20260904224504 92 198 5.0 12.0 0.00 0.00 0.00 34 1016.3
20260904224005 92 218 5.0 12.0 0.00 0.00 0.00 34 1016.4
20260904223725 92 245 6.0 30.0 0.00 0.00 0.00 34 1016.5
20260904223002 91 308 6.0 30.0 0.00 0.00 0.00 35 1016.5
20260904222502 90 227 5.0 11.0 0.00 0.00 0.00 36 1016.7
20260904222446 90 225 5.0 11.0 0.00 0.00 0.00 36 1016.8
20260904221501 90 320 6.0 13.0 0.00 0.00 0.00 36 1016.7
20260904221001 91 323 6.0 13.0 0.00 0.00 0.00 36 1016.8
20260904220501 91 224 6.0 13.0 0.00 0.00 0.00 36 1016.9
20260904220002 91 202 7.0 13.0 0.00 0.00 0.00 36 1017.0